TimeMST,TemperatureF,Dew PointF,Humidity,Sea Level PressureIn,VisibilityMPH,Wind Direction,Wind SpeedMPH,Gust SpeedMPH,PrecipitationIn,Events,Conditions,WindDirDegrees,DateUTC
12:58 AM,15.4,15.3,99,30.12,10.0,NW,1.2,-,N/A,,Clear,310,2012-12-19 07:58:00
1:58 AM,15.1,15.1,100,30.13,10.0,NNW,4.6,-,N/A,,Clear,330,2012-12-19 08:58:00
2:58 AM,16.0,16.0,100,30.15,10.0,North,3.5,-,N/A,,Clear,360,2012-12-19 09:58:00
3:58 AM,11.3,11.3,100,30.17,10.0,West,4.6,-,N/A,,Clear,270,2012-12-19 10:58:00
4:58 AM,12.9,12.9,100,30.19,10.0,WSW,5.8,-,N/A,,Clear,240,2012-12-19 11:58:00
5:58 AM,13.6,13.6,100,30.22,10.0,NNW,2.3,-,N/A,,Clear,330,2012-12-19 12:58:00
6:58 AM,14.0,13.8,99,30.25,10.0,North,1.2,-,N/A,,Clear,360,2012-12-19 13:58:00
7:58 AM,10.9,10.9,100,30.29,10.0,Calm,Calm,-,N/A,,Clear,0,2012-12-19 14:58:00
8:58 AM,12.4,12.2,99,30.32,10.0,East,2.3,-,N/A,,Clear,90,2012-12-19 15:58:00
9:58 AM,21.4,20.5,96,30.34,10.0,ESE,5.8,-,N/A,,Clear,120,2012-12-19 16:58:00
10:58 AM,26.4,19.6,75,30.35,10.0,ESE,6.9,-,N/A,,Clear,110,2012-12-19 17:58:00
11:58 AM,30.7,15.8,54,30.32,10.0,ESE,9.2,-,N/A,,Clear,120,2012-12-19 18:58:00
12:58 PM,32.0,13.6,47,30.32,10.0,ESE,5.8,-,N/A,,Clear,120,2012-12-19 19:58:00
1:58 PM,33.8,10.4,38,30.31,10.0,Variable,5.8,-,N/A,,Clear,0,2012-12-19 20:58:00
2:58 PM,34.0,10.4,38,30.31,10.0,SSE,10.4,-,N/A,,Scattered Clouds,160,2012-12-19 21:58:00
3:58 PM,33.6,11.7,40,30.33,10.0,ESE,8.1,-,N/A,,Clear,120,2012-12-19 22:58:00
4:58 PM,31.1,18.5,60,30.32,10.0,East,16.1,-,N/A,,Partly Cloudy,90,2012-12-19 23:58:00
5:58 PM,30.0,18.1,61,30.33,10.0,East,18.4,-,N/A,,Scattered Clouds,100,2012-12-20 00:58:00
6:58 PM,29.8,18.3,62,30.34,10.0,ESE,18.4,-,N/A,,Mostly Cloudy,110,2012-12-20 01:58:00
7:38 PM,30.2,17.6,60,30.24,10.0,ESE,20.7,-,N/A,,Overcast,110,2012-12-20 02:38:00
7:43 PM,30.2,17.6,60,30.24,10.0,East,21.9,26.5,N/A,,Mostly Cloudy,100,2012-12-20 02:43:00
7:58 PM,29.8,18.3,62,30.37,10.0,ESE,18.4,-,N/A,,Partly Cloudy,110,2012-12-20 02:58:00
8:58 PM,28.8,18.5,66,30.36,10.0,East,19.6,-,N/A,,Clear,100,2012-12-20 03:58:00
9:58 PM,27.5,18.0,67,30.34,10.0,ESE,17.3,-,N/A,,Partly Cloudy,120,2012-12-20 04:58:00
10:58 PM,27.7,18.3,68,30.32,10.0,ESE,21.9,-,N/A,,Overcast,120,2012-12-20 05:58:00
11:58 PM,28.2,17.2,63,30.32,10.0,ESE,20.7,-,N/A,,Overcast,110,2012-12-20 06:58:00